Flag for Norway Weather past 2 weeks in Drammen, Norway

Now
39 °F

Passing clouds.


Feels Like: 30 °F
Forecast: 19 / 36 °F
Wind: 17 mph from Southwest

Location: Oslo / Fornebu

Current Time: Mar 3, 2015 at 8:17:08 PM

Latest Report: Mar 3, 2015 at 7:20 PM


Visibility: N/A

Pressure: 29.47 "Hg

Humidity: 70%

Dew point: 30 °F

Location of DrammenLocation

Historic Weather in Drammen — Graph

°F

Drammen temperature yesterday

Maximum temperature yesterday: 43 °F (at 12:20 AM)
Minimum temperature yesterday: 36 °F (at 4:50 PM)
Average temperature yesterday: 40 °F

Past Weeks' High & Low Weather Summary

 TemperatureHumidityPressure
High48 °F (Feb 18, 8:50 AM)100% (Feb 17, 11:50 PM)30.04 "Hg (Feb 17, 11:50 PM)
Low34 °F (Feb 22, 6:50 AM)53% (Feb 17, 5:50 AM)28.44 "Hg (Mar 1, 12:20 PM)
Average42 °F80%29.24 "Hg
* Reported Feb 16 6:20 PM — Mar 3 6:50 PM, Drammen, Weather by CustomWeather, © 2015

Note: Actual official high and low records may vary slightly from our data, if they occured in-between our weather recording intervals... More about our weather records

Advertising

Drammen weather history for previous 24 hours

 ConditionsComfort  
Time TempWeatherWind HumidityBarometerVisibility
6:50 PM
Tue, Mar 3
39 °FPassing clouds.18 mph70%29.45 "HgN/A
6:20 PM39 °FPassing clouds.21 mph75%29.45 "HgN/A
5:50 PM39 °FPassing clouds.24 mph75%29.45 "HgN/A
5:20 PM41 °FPassing clouds.24 mph70%29.45 "HgN/A
4:50 PM39 °FBroken clouds.28 mph70%29.42 "HgN/A
4:20 PM39 °FLight rain. Broken clouds.24 mph70%29.42 "HgN/A
3:50 PM39 °FScattered clouds.23 mph75%29.42 "HgN/A
3:20 PM39 °FBroken clouds.24 mph75%29.42 "HgN/A
2:50 PM39 °FPartly sunny.18 mph75%29.42 "HgN/A
2:20 PM37 °FPartly sunny.24 mph87%29.42 "HgN/A
1:50 PM39 °FPassing clouds.17 mph75%29.42 "HgN/A
1:20 PM41 °FQuite cool.17 mph70%29.39 "HgN/A
12:50 PM39 °FPassing clouds.21 mph75%29.39 "HgN/A
12:20 PM39 °FPassing clouds.24 mph75%29.39 "HgN/A
11:50 AM37 °FPartly sunny.26 mph81%29.39 "HgN/A
11:20 AM37 °FPartly sunny.33 mph81%29.36 "HgN/A
10:50 AM39 °FPartly sunny.25 mph75%29.36 "HgN/A
10:20 AM37 °FPassing clouds.23 mph81%29.36 "HgN/A
9:50 AM39 °FSprinkles. Broken clouds.25 mph75%29.36 "HgN/A
9:20 AM39 °FPartly sunny.20 mph81%29.36 "HgN/A
8:50 AM37 °FSprinkles. Partly sunny.13 mph81%29.36 "HgN/A
8:20 AM39 °FSprinkles. Scattered clouds.22 mph75%29.33 "HgN/A
7:50 AM39 °FScattered clouds.20 mph70%29.33 "HgN/A
7:20 AM39 °FPartly sunny.23 mph75%29.30 "HgN/A
6:50 AM39 °FPassing clouds.22 mph70%29.30 "HgN/A
6:20 AM39 °FPassing clouds.26 mph65%29.30 "HgN/A
5:50 AM39 °FPassing clouds.31 mph70%29.30 "HgN/A
5:20 AM39 °FPassing clouds.29 mph75%29.30 "HgN/A
4:50 AM39 °FPartly cloudy.28 mph75%29.30 "HgN/A
4:20 AM39 °FPartly cloudy.25 mph75%29.30 "HgN/A
3:50 AM39 °FSprinkles. Passing clouds.30 mph75%29.30 "HgN/A
3:20 AM39 °FPassing clouds.25 mph70%29.27 "HgN/A
2:50 AM41 °FPassing clouds.26 mph66%29.27 "HgN/A
2:20 AM41 °FPassing clouds.26 mph61%29.27 "HgN/A
1:50 AM41 °FPassing clouds.26 mph66%29.27 "HgN/A
1:20 AM39 °FPartly cloudy.28 mph75%29.27 "HgN/A
12:50 AM41 °FPassing clouds.26 mph70%29.27 "HgN/A
12:20 AM41 °FPassing clouds.29 mph70%29.27 "HgN/A
11:50 PM
Mon, Mar 2
41 °FPartly cloudy.28 mph76%29.24 "HgN/A
11:20 PM39 °FPartly cloudy.28 mph75%29.24 "HgN/A
10:50 PM41 °FPassing clouds.26 mph70%29.24 "HgN/A
10:20 PM39 °FSprinkles. Passing clouds.23 mph81%29.24 "HgN/A
9:50 PM39 °FPassing clouds.18 mph87%29.24 "HgN/A
9:20 PM39 °FPartly cloudy.20 mph87%29.24 "HgN/A
8:50 PM39 °FPassing clouds.12 mph87%29.24 "HgN/A
8:20 PM37 °FLight rain. Passing clouds.10 mph87%29.24 "HgN/A
Weather by CustomWeather, © 2015

See weather overviewHow to use our weather pages